When you browse on this site, cookies collect data to enhance your experience and personalize the content and advertising you see.
Visit our Privacy Policy to learn more. By continuing to use the site, you agree to this use of cookies and data.
  • în România
  • Lista ţărilor
  • Pe 7 zile
  • Temperatura apei
  • Hartă satelitară
  • Meteo pe hartă
  • Widget-uri
  • user-avatar
    Intrare

    Meteo pe oră la Malkowice

    Astăzi, 18 Februarie, Luni

    Timp Temperatura Precipitaţii Vânt Presiune Umiditate
    00:00 +5°C° 0 mm 1 m/s 750 mmHg 75%
    01:00 +5°C° 0 mm 1 m/s 750 mmHg 77%
    02:00 +5°C° 0 mm 1 m/s 749 mmHg 78%
    03:00 +4°C° 0 mm 1 m/s 749 mmHg 78%
    04:00 +4°C° 0 mm 1 m/s 749 mmHg 79%
    05:00 +4°C° 0 mm 1 m/s 749 mmHg 78%
    06:00 +3°C° 0 mm 1 m/s 749 mmHg 77%
    07:00 +2°C° 0 mm 0 m/s 749 mmHg 76%
    08:00 +5°C° 0 mm 1 m/s 749 mmHg 70%
    09:00 +6°C° 0 mm 1 m/s 749 mmHg 63%
    10:00 +8°C° 0 mm 1 m/s 749 mmHg 56%
    11:00 +9°C° 0 mm 1 m/s 749 mmHg 52%
    12:00 +10°C° 0 mm 1 m/s 748 mmHg 48%
    13:00 +11°C° 0 mm 1 m/s 748 mmHg 43%
    14:00 +11°C° 0 mm 1 m/s 748 mmHg 45%
    15:00 +11°C° 0 mm 1 m/s 747 mmHg 47%
    16:00 +11°C° 0 mm 1 m/s 747 mmHg 49%
    17:00 +10°C° 0 mm 1 m/s 747 mmHg 53%
    18:00 +9°C° 0 mm 1 m/s 747 mmHg 58%
    19:00 +8°C° 0 mm 1 m/s 747 mmHg 63%
    20:00 +7°C° 0 mm 1 m/s 747 mmHg 66%
    21:00 +7°C° 0 mm 1 m/s 747 mmHg 69%
    22:00 +6°C° 0 mm 1 m/s 747 mmHg 73%
    23:00 +6°C° 0 mm 1 m/s 747 mmHg 74%

    Mâine, 19 Februarie, Marţi

    Timp Temperatura Precipitaţii Vânt Presiune Umiditate
    00:00 +5°C° 0 mm 1 m/s 747 mmHg 74%
    01:00 +5°C° 0 mm 1 m/s 747 mmHg 75%
    02:00 +4°C° 0 mm 1 m/s 746 mmHg 74%
    03:00 +4°C° 0 mm 1 m/s 746 mmHg 73%
    04:00 +4°C° 0 mm 1 m/s 746 mmHg 72%
    05:00 +3°C° 0 mm 1 m/s 745 mmHg 71%
    06:00 +3°C° 0 mm 1 m/s 745 mmHg 69%
    07:00 +3°C° 0 mm 1 m/s 745 mmHg 68%
    08:00 +5°C° 0 mm 1 m/s 745 mmHg 61%
    09:00 +6°C° 0 mm 1 m/s 745 mmHg 55%
    10:00 +8°C° 0 mm 1 m/s 745 mmHg 49%
    11:00 +9°C° 0 mm 2 m/s 744 mmHg 46%
    12:00 +10°C° 0 mm 2 m/s 744 mmHg 43%
    13:00 +12°C° 0 mm 2 m/s 744 mmHg 40%
    14:00 +12°C° 0 mm 2 m/s 744 mmHg 43%
    15:00 +12°C° 0 mm 2 m/s 743 mmHg 46%
    16:00 +12°C° 0 mm 2 m/s 743 mmHg 49%
    17:00 +10°C° 0 mm 2 m/s 743 mmHg 56%
    18:00 +8°C° 0 mm 3 m/s 743 mmHg 63%
    19:00 +7°C° 0 mm 3 m/s 743 mmHg 69%
    20:00 +5°C° 0 mm 4 m/s 743 mmHg 71%
    21:00 +5°C° 0 mm 4 m/s 743 mmHg 74%
    22:00 +4°C° 0 mm 4 m/s 744 mmHg 76%
    23:00 +4°C° 0.1 mm 4 m/s 744 mmHg 76%

    Poimâine, 20 Februarie, Miercuri

    Timp Temperatura Precipitaţii Vânt Presiune Umiditate
    00:00 +4°C° 0.1 mm 4 m/s 744 mmHg 76%
    01:00 +4°C° 0.1 mm 4 m/s 744 mmHg 77%
    02:00 +4°C° 0.4 mm 4 m/s 744 mmHg 81%
    03:00 +4°C° 0.4 mm 4 m/s 744 mmHg 85%
    04:00 +4°C° 0.4 mm 4 m/s 744 mmHg 88%
    05:00 +4°C° 0 mm 4 m/s 744 mmHg 89%
    06:00 +3°C° 0 mm 4 m/s 745 mmHg 90%
    07:00 +3°C° 0 mm 4 m/s 745 mmHg 91%
    08:00 +3°C° 0.1 mm 5 m/s 745 mmHg 83%
    09:00 +5°C° 0.1 mm 5 m/s 746 mmHg 75%
    10:00 +5°C° 0.1 mm 6 m/s 746 mmHg 66%
    11:00 +7°C° 0 mm 6 m/s 746 mmHg 63%
    12:00 +7°C° 0 mm 6 m/s 746 mmHg 60%
    13:00 +8°C° 0 mm 7 m/s 746 mmHg 57%
    14:00 +7°C° 0 mm 6 m/s 746 mmHg 58%
    15:00 +7°C° 0 mm 6 m/s 746 mmHg 59%
    16:00 +7°C° 0 mm 5 m/s 746 mmHg 60%
    17:00 +6°C° 0 mm 5 m/s 747 mmHg 63%
    18:00 +6°C° 0 mm 4 m/s 747 mmHg 66%
    19:00 +5°C° 0 mm 3 m/s 748 mmHg 69%
    20:00 +5°C° 0 mm 3 m/s 748 mmHg 70%
    21:00 +5°C° 0 mm 4 m/s 748 mmHg 72%
    22:00 +5°C° 0 mm 4 m/s 748 mmHg 73%
    23:00 +4°C° 0 mm 4 m/s 748 mmHg 75%

    21 Februarie, Joi

    Timp Temperatura Precipitaţii Vânt Presiune Umiditate
    00:00 +4°C° 0 mm 4 m/s 748 mmHg 77%
    01:00 +4°C° 0 mm 4 m/s 748 mmHg 79%
    02:00 +4°C° 0 mm 4 m/s 748 mmHg 79%
    03:00 +3°C° 0 mm 4 m/s 748 mmHg 79%
    04:00 +3°C° 0 mm 4 m/s 748 mmHg 80%
    05:00 +3°C° 0 mm 4 m/s 748 mmHg 80%
    06:00 +1°C° 0 mm 4 m/s 748 mmHg 81%
    07:00 +1°C° 0 mm 4 m/s 748 mmHg 82%
    08:00 +3°C° 0.1 mm 4 m/s 748 mmHg 77%
    09:00 +3°C° 0.1 mm 5 m/s 749 mmHg 72%
    10:00 +6°C° 0.1 mm 5 m/s 749 mmHg 68%
    11:00 +6°C° 0.3 mm 5 m/s 748 mmHg 68%
    12:00 +6°C° 0.3 mm 5 m/s 748 mmHg 68%
    13:00 +6°C° 0.3 mm 5 m/s 748 mmHg 68%
    14:00 +6°C° 0.2 mm 5 m/s 748 mmHg 70%
    15:00 +6°C° 0.2 mm 4 m/s 748 mmHg 72%
    16:00 +6°C° 0.2 mm 4 m/s 748 mmHg 75%
    17:00 +6°C° 0.1 mm 4 m/s 748 mmHg 78%
    18:00 +5°C° 0.1 mm 4 m/s 748 mmHg 80%
    19:00 +5°C° 0.1 mm 3 m/s 749 mmHg 83%
    20:00 +5°C° 0.2 mm 3 m/s 749 mmHg 84%
    21:00 +5°C° 0.2 mm 3 m/s 749 mmHg 86%
    22:00 +5°C° 0.2 mm 3 m/s 749 mmHg 87%
    23:00 +5°C° 0.2 mm 3 m/s 750 mmHg 88%

    22 Februarie, Vineri

    Timp Temperatura Precipitaţii Vânt Presiune Umiditate
    00:00 +5°C° 0.2 mm 3 m/s 750 mmHg 89%
    01:00 +5°C° 0.2 mm 3 m/s 750 mmHg 90%
    02:00 +5°C° 0 mm 3 m/s 751 mmHg 91%
    03:00 +4°C° 0 mm 3 m/s 751 mmHg 92%
    04:00 +4°C° 0 mm 3 m/s 751 mmHg 93%
    05:00 +4°C° 0 mm 3 m/s 752 mmHg 93%
    06:00 +4°C° 0 mm 3 m/s 752 mmHg 93%
    07:00 +4°C° 0 mm 3 m/s 753 mmHg 93%
    08:00 +5°C° 0.1 mm 3 m/s 753 mmHg 90%
    09:00 +5°C° 0.1 mm 4 m/s 754 mmHg 87%
    10:00 +6°C° 0.1 mm 4 m/s 754 mmHg 84%
    11:00 +5°C° 0.1 mm 4 m/s 755 mmHg 81%
    12:00 +5°C° 0.1 mm 4 m/s 755 mmHg 77%
    13:00 +5°C° 0.1 mm 4 m/s 755 mmHg 73%
    14:00 +5°C° 0 mm 4 m/s 756 mmHg 66%
    15:00 +5°C° 0 mm 4 m/s 756 mmHg 58%
    16:00 +5°C° 0 mm 4 m/s 757 mmHg 50%
    17:00 +4°C° 0 mm 3 m/s 757 mmHg 51%
    18:00 +2°C° 0 mm 3 m/s 758 mmHg 52%
    19:00 +1°C° 0 mm 3 m/s 758 mmHg 53%
    20:00 +2°C° 0 mm 2 m/s 759 mmHg 56%
    21:00 +1°C° 0 mm 2 m/s 759 mmHg 58%
    22:00 -1°C° 0 mm 2 m/s 760 mmHg 61%
    23:00 +1°C° 0 mm 1 m/s 760 mmHg 61%

    23 Februarie, Sâmbătă

    Timp Temperatura Precipitaţii Vânt Presiune Umiditate
    00:00 +1°C° 0 mm 1 m/s 760 mmHg 61%
    01:00 0°C° 0 mm 1 m/s 760 mmHg 61%
    02:00 0°C° 0 mm 1 m/s 761 mmHg 60%
    03:00 0°C° 0 mm 1 m/s 761 mmHg 59%
    04:00 0°C° 0 mm 1 m/s 761 mmHg 58%
    05:00 0°C° 0 mm 1 m/s 761 mmHg 58%
    06:00 -1°C° 0 mm 0 m/s 761 mmHg 57%
    07:00 -1°C° 0 mm 0 m/s 761 mmHg 56%
    08:00 0°C° 0 mm 0 m/s 761 mmHg 50%
    09:00 +1°C° 0 mm 0 m/s 761 mmHg 44%
    10:00 +2°C° 0 mm 0 m/s 761 mmHg 38%
    11:00 +3°C° 0 mm 0 m/s 761 mmHg 36%
    12:00 +4°C° 0 mm 0 m/s 761 mmHg 34%
    13:00 +5°C° 0 mm 0 m/s 761 mmHg 32%
    14:00 +5°C° 0 mm 0 m/s 760 mmHg 34%
    15:00 +6°C° 0 mm 1 m/s 760 mmHg 36%
    16:00 +6°C° 0 mm 1 m/s 759 mmHg 38%
    17:00 +6°C° 0 mm 1 m/s 759 mmHg 41%
    18:00 +5°C° 0 mm 2 m/s 759 mmHg 45%
    19:00 +4°C° 0 mm 2 m/s 759 mmHg 48%
    20:00 +4°C° 0 mm 2 m/s 759 mmHg 52%
    21:00 +3°C° 0 mm 2 m/s 759 mmHg 56%
    22:00 +1°C° 0 mm 3 m/s 758 mmHg 60%
    23:00 +1°C° 0 mm 3 m/s 758 mmHg 64%
    Arată mai mult